User: anonymous   Login
Location: Camp Creek
(33.9000°N, 111.8167°W)
Time: 23:33:55
(UTC-07:00)
Language:

Cosmos 2322 Rocket - Orbit

View from above orbital plane
View from above orbital plane
View from above satellite
View from above satellite

Ground track
Ground track

The orbit data is extracted from the following two-line orbital elements,

1 23705U 95058B   15188.82167522 -.00000013  00000-0  17742-4 0  9990
2 23705 071.0224 079.3741 0014359 296.2543 063.7104 14.15062149 16695
Epoch (UTC): 07 July 2015 19:43:12
Eccentricity: 0.0014359
inclination: 71.0224°
perigee height: 832 km
apogee height: 852 km
right ascension of ascending node: 79.3741°
argument of perigee: 296.2543°
revolutions per day: 14.15062149
mean anomaly at epoch: 63.7104°
orbit number at epoch: 1669

The dashed part of the orbit path shows where the satellite is in the earth's shadow,  

DLR